COSMOS 1234

Satellite information

Favourite Embed

Satellite Type and Status

PAYLOADIN ORBIT

Key statistics

Satellite COSMOS 1234 at a glance.

Uptime

16384

Days in orbit

Revolutions

≈ 12.6

Per day

Orbit

LEO

Low Earth Orbit

Inclination

74.0

Latest

Satellite identification and parameters

Extended collection of information and parameters for COSMOS 1234.

Object identification

Identified? True

Debris? False

Object name: COSMOS 1234

International designator: 1980-102G

Object number (NORAD): 12113

Object ID (CCSDS): 12113

Country: COMMONWEALTH OF INDEPENDENT STATES (CIS)

Current information (Y/N): Y

RCS size: MEDIUM

Orbital parameters

Period: 114.585 minutes

Inclination: 73.9933 deg

SMA: 7814.698 km

Apoapsis: 1463.3 km

Periapsis: 1409.826 km

RAAN: 315.5395 deg

Eccentricy: 0.0034214

Argument of periapsis: 59.585 deg

Mean anomaly: 52.6954 deg

Mean motion: 12.56708206 rev/day

Mean motion (dot): 0.00000007 rev/day2

B* drag term: 0.0001404 1/REarth

Two-line elements (TLE)

Creation date: Oct. 31, 2025, 10:56 p.m.

Reference frame: TEME

Reference center: EARTH

Epoch: Oct. 31, 2025, 6:18 p.m. UTC

TLE line 0: 0 COSMOS 1234

TLE line 1: 1 12113U 80102G 25304.76285138 .00000007 00000-0 14040-3 0 9992

TLE line 2: 2 12113 73.9933 315.5395 0034214 59.5850 52.6954 12.56708206 57629

Live tracking on map

Real-time ground track for satellite COSMOS 1234.

In-orbit conjunctions

There are no conjunctions computed for COSMOS 1234, at the moment. Check back to stay up to date, as we update our databases every day.

Go to all conjunctions

Associated space launch

Military communications satellites

COSMOS 1234 was lifted into orbit during the mission ‘Kosmos-3M | Strela-1M 201-208’, on board a Kosmos-3M space rocket.

The launch took place on Dec. 23, 1980, 10:48 p.m. from 132/1 (132L).

For more information about the launch, click the button.

Launch to space Kosmos-3M | Strela-1M 201-208
Kosmos-3M | Strela-1M 201-208

Agency: N/A

Status: Launch Successful

Launch date: Dec. 23, 1980, 10:48 p.m. UTC

Rocket: Kosmos-3M

Launch pad: 132/1 (132L)

Location: Plesetsk Cosmodrome, Russian Federation

...

Latest news about this satellite

There are no fresh news available about this satellite. Check back as we update our databases every day.


Newsletter sign-up

Weekly statistics, charts and insights to help you stay on top of the space industry.